Flag for Italy Weather past 2 weeks in Palermo, Italy

Now
75 °F

Sunny.


Feels Like: 78 °F
Forecast: 60 / 80 °F
Wind: 13 mph from East

Location: Palermo / Punta Raisi

Current Time: Sep 30, 2014 at 7:36:30 PM

Latest Report: Sep 30, 2014 at 6:50 PM


Visibility: 10 mi

Pressure: 30.27 "Hg

Humidity: 57%

Dew point: 59 °F

Location of PalermoLocation

Historic Weather in Palermo — Graph

°F

Palermo temperature yesterday

Maximum temperature yesterday: 77 °F (at 1:20 PM)
Minimum temperature yesterday: 64 °F (at 2:50 AM)
Average temperature yesterday: 72 °F

Past Weeks' High & Low Weather Summary

 TemperatureHumidityPressure
High93 °F (Sep 19, 10:20 AM)94% (Sep 21, 2:50 AM)30.36 "Hg (Sep 21, 2:50 AM)
Low64 °F (Sep 29, 2:50 AM)24% (Sep 19, 10:20 AM)29.80 "Hg (Sep 23, 2:50 AM)
Average78 °F67%30.05 "Hg
* Reported Sep 15 6:20 PM — Sep 30 6:20 PM, Palermo, Weather by CustomWeather, © 2014

Note: Actual official high and low records may vary slightly from our data, if they occured in-between our weather recording intervals... More about our weather records

Advertising

Palermo weather history for previous 24 hours

 ConditionsComfort  
Time TempWeatherWind HumidityBarometerVisibility
6:20 PM
Sep 30
75 °FSunny.13 mph57%30.27 "Hg10 mi
5:50 PM77 °FPassing clouds.14 mph51%30.27 "HgN/A
5:20 PM77 °FPassing clouds.13 mph51%30.27 "HgN/A
4:50 PM77 °FPassing clouds.13 mph54%30.30 "HgN/A
4:20 PM77 °FPassing clouds.12 mph54%30.30 "HgN/A
3:50 PM77 °FPassing clouds.12 mph57%30.30 "HgN/A
3:20 PM77 °FPassing clouds.13 mph61%30.30 "HgN/A
2:50 PM77 °FPassing clouds.12 mph57%30.30 "HgN/A
2:20 PM77 °FPassing clouds.12 mph57%30.30 "HgN/A
1:50 PM77 °FPassing clouds.10 mph57%30.30 "HgN/A
1:20 PM77 °FPassing clouds.8 mph61%30.33 "HgN/A
12:50 PM77 °FPassing clouds.7 mph65%30.33 "HgN/A
12:20 PM75 °FPassing clouds.7 mph65%30.33 "HgN/A
11:50 AM77 °FPassing clouds.5 mph61%30.33 "HgN/A
11:20 AM75 °FPassing clouds.3 mph65%30.33 "HgN/A
10:50 AM75 °FPassing clouds.2 mph61%30.33 "HgN/A
10:20 AM77 °FPassing clouds.2 mph54%30.33 "HgN/A
9:50 AM72 °FPassing clouds.2 mph69%30.33 "HgN/A
9:20 AM70 °FPassing clouds.3 mph73%30.33 "HgN/A
8:50 AM72 °FPassing clouds.3 mph73%30.30 "HgN/A
8:20 AM68 °FSunny.3 mph73%30.30 "Hg10 mi
7:50 AM66 °FClear.6 mph73%30.30 "Hg10 mi
7:20 AM64 °FClear.2 mph78%30.30 "Hg10 mi
6:50 AM64 °FClear.3 mph78%30.27 "Hg10 mi
6:20 AM66 °FClear.2 mph73%30.27 "Hg10 mi
5:50 AM64 °FClear.6 mph78%30.27 "Hg10 mi
5:20 AM66 °FClear.3 mph73%30.27 "Hg10 mi
4:50 AM68 °FClear.3 mph69%30.27 "Hg10 mi
4:20 AM68 °FClear.2 mph69%30.27 "Hg10 mi
3:50 AM68 °FPassing clouds.3 mph69%30.30 "HgN/A
3:20 AM70 °FClear.2 mph64%30.30 "Hg10 mi
2:50 AM68 °FClear.7 mph69%30.30 "Hg10 mi
2:20 AM68 °FClear.7 mph69%30.30 "Hg10 mi
1:50 AM68 °FClear.8 mph69%30.30 "Hg10 mi
1:20 AM68 °FClear.7 mph69%30.30 "Hg10 mi
12:50 AM68 °FClear.6 mph69%30.33 "Hg10 mi
12:20 AM68 °FClear.6 mph69%30.33 "Hg10 mi
11:50 PM
Sep 29
68 °FPassing clouds.6 mph69%30.33 "HgN/A
11:20 PM68 °FPassing clouds.3 mph69%30.33 "HgN/A
10:50 PM72 °FPassing clouds.5 mph61%30.33 "HgN/A
10:20 PM70 °FPassing clouds.5 mph64%30.30 "HgN/A
9:50 PM72 °FPassing clouds.No wind61%30.33 "HgN/A
9:20 PM72 °FPassing clouds.7 mph65%30.30 "HgN/A
8:50 PM73 °FPassing clouds.9 mph61%30.30 "HgN/A
8:20 PM72 °FPassing clouds.7 mph65%30.30 "HgN/A
7:50 PM73 °FScattered clouds.9 mph61%30.30 "HgN/A
7:20 PM75 °FScattered clouds.10 mph57%30.30 "HgN/A
Weather by CustomWeather, © 2014

See weather overviewHow to use our weather pages